GW3806 Weather Reports


Display with metric or nautical units.
time (UTC)temp
F
wind
direction
speed
MPH
gust
MPH
rain 1hr
in
rain 24hr
in
rain mn
in
humidity
%
barometer
mb
20260502130404 40 96 7.0 17.0 0.00 0.00 0.00 55 1018.7
20260502123347 39 90 0.0 12.0 0.00 0.00 0.00 55 1018.8
20260502122844 39 107 0.0 10.0 0.00 0.00 0.00 56 1018.5
20260502122339 37 96 6.0 14.0 0.00 0.00 0.00 60 1018.7
20260502121838 38 75 7.0 17.0 0.00 0.00 0.00 58 1018.8
20260502121335 39 78 6.0 14.0 0.00 0.00 0.00 56 1019.0
20260502120832 37 79 7.0 12.0 0.00 0.00 0.00 59 1018.8
20260502120328 39 86 5.0 13.0 0.00 0.00 0.00 55 1018.8
20260502115826 37 118 9.0 13.0 0.00 0.00 0.00 59 1018.9
20260502115323 39 101 7.0 11.0 0.00 0.00 0.00 56 1018.7
20260502114819 39 132 4.0 14.0 0.00 0.00 0.00 56 1018.8
20260502114316 37 94 5.0 13.0 0.00 0.00 0.00 60 1018.8
20260502113813 37 90 6.0 11.0 0.00 0.00 0.00 60 1018.9
20260502113311 37 99 8.0 16.0 0.00 0.00 0.00 59 1019.0
20260502112809 37 104 5.0 10.0 0.00 0.00 0.00 59 1018.8
20260502112306 38 84 8.0 15.0 0.00 0.00 0.00 59 1019.0
20260502111803 38 83 8.0 16.0 0.00 0.00 0.00 59 1019.0
20260502111301 38 86 8.0 16.0 0.00 0.00 0.00 60 1019.0
20260502110758 38 102 6.0 13.0 0.00 0.00 0.00 59 1019.0
20260502110256 37 100 9.0 13.0 0.00 0.00 0.00 61 1019.0
20260502105754 37 110 9.0 15.0 0.00 0.00 0.00 61 1019.1
20260502105249 37 119 9.0 13.0 0.00 0.00 0.00 60 1019.0
20260502104748 37 115 5.0 12.0 0.00 0.00 0.00 62 1019.1
20260502104245 36 116 12.0 12.0 0.00 0.00 0.00 63 1019.3
20260502103742 38 96 4.0 11.0 0.00 0.00 0.00 60 1019.0
20260502103240 39 109 5.0 12.0 0.00 0.00 0.00 56 1019.0
20260502102736 39 0 3.0 9.0 0.00 0.00 0.00 56 1018.9
20260502102233 39 111 3.0 9.0 0.00 0.00 0.00 58 1019.0
20260502101731 39 46 6.0 13.0 0.00 0.00 0.00 57 1018.9
20260502101229 39 79 5.0 11.0 0.00 0.00 0.00 57 1019.0
20260502100727 39 81 4.0 9.0 0.00 0.00 0.00 57 1019.0
20260502100225 39 98 5.0 13.0 0.00 0.00 0.00 59 1019.0
20260502091159 39 143 4.0 7.0 0.00 0.00 0.00 57 1019.1
20260502090656 40 94 5.0 8.0 0.00 0.00 0.00 56 1019.3
20260502090153 40 109 4.0 9.0 0.00 0.00 0.00 57 1019.0
20260502071049 41 23 4.0 13.0 0.00 0.00 0.00 57 1019.4
20260502070547 41 93 4.0 12.0 0.00 0.00 0.00 57 1019.4
20260502070045 40 102 2.0 7.0 0.00 0.00 0.00 58 1019.4
20260502065544 40 90 5.0 11.0 0.00 0.00 0.00 58 1019.6
20260502065040 40 36 4.0 12.0 0.00 0.00 0.00 58 1019.4
20260502064539 40 90 3.0 11.0 0.00 0.00 0.00 58 1019.5
20260502064035 41 109 5.0 11.0 0.00 0.00 0.00 57 1019.6
20260502063533 41 78 9.0 19.0 0.00 0.00 0.00 57 1019.5
20260502063031 41 98 9.0 10.0 0.00 0.00 0.00 56 1019.3
20260502062527 41 3 5.0 12.0 0.00 0.00 0.00 56 1019.5
20260502062026 41 93 7.0 14.0 0.00 0.00 0.00 58 1019.5
20260502061523 41 77 7.0 12.0 0.00 0.00 0.00 58 1019.3
20260502061015 41 98 7.0 11.0 0.00 0.00 0.00 58 1019.4
20260502060510 40 67 3.0 11.0 0.00 0.00 0.00 59 1019.5
20260502060007 41 90 5.0 9.0 0.00 0.00 0.00 58 1019.3
20260502055504 41 85 8.0 17.0 0.00 0.00 0.00 58 1019.3
20260502055004 41 71 7.0 12.0 0.00 0.00 0.00 57 1019.3
20260502054502 41 75 6.0 9.0 0.00 0.00 0.00 57 1019.4
20260502053958 41 83 3.0 8.0 0.00 0.00 0.00 57 1019.4
20260502053455 42 68 4.0 9.0 0.00 0.00 0.00 56 1019.5
20260502052953 42 64 4.0 11.0 0.00 0.00 0.00 56 1019.3
20260502052451 42 70 5.0 9.0 0.00 0.00 0.00 56 1019.3
20260502051949 42 97 5.0 10.0 0.00 0.00 0.00 55 1019.3
20260502051447 42 11 2.0 11.0 0.00 0.00 0.00 56 1019.3
20260502050944 42 77 3.0 9.0 0.00 0.00 0.00 56 1019.3
20260502050440 42 108 7.0 10.0 0.00 0.00 0.00 56 1019.4
20260502045938 42 346 1.0 11.0 0.00 0.00 0.00 56 1019.6
20260502045434 42 63 6.0 13.0 0.00 0.00 0.00 57 1019.6
20260502044931 42 57 3.0 12.0 0.00 0.00 0.00 57 1019.5
20260502044427 43 95 4.0 13.0 0.00 0.00 0.00 56 1019.6
20260502043924 42 82 2.0 10.0 0.00 0.00 0.00 56 1019.6
20260502043422 42 80 2.0 12.0 0.00 0.00 0.00 57 1019.5
20260502042921 42 72 5.0 10.0 0.00 0.00 0.00 57 1019.8
20260502042419 42 60 6.0 7.0 0.00 0.00 0.00 57 1019.8
20260502041915 43 90 6.0 11.0 0.00 0.00 0.00 57 1019.5
20260502041414 43 90 1.0 10.0 0.00 0.00 0.00 56 1019.6
20260502040910 43 109 3.0 7.0 0.00 0.00 0.00 56 1019.6
20260502040407 44 84 9.0 11.0 0.00 0.00 0.00 55 1019.4
20260502035903 44 85 6.0 12.0 0.00 0.00 0.00 55 1019.4
20260502035400 44 0 0.0 8.0 0.00 0.00 0.00 53 1019.4
20260502034857 44 80 5.0 5.0 0.00 0.00 0.00 55 1019.5
20260502034356 44 23 1.0 10.0 0.00 0.00 0.00 55 1019.4
20260502033854 44 100 4.0 13.0 0.00 0.00 0.00 56 1019.3
20260502033351 45 79 6.0 7.0 0.00 0.00 0.00 55 1019.4
20260502032847 45 112 3.0 11.0 0.00 0.00 0.00 53 1019.4
20260502032344 45 110 4.0 9.0 0.00 0.00 0.00 55 1019.3
20260502031841 45 58 3.0 12.0 0.00 0.00 0.00 55 1019.0
20260502031340 45 83 5.0 11.0 0.00 0.00 0.00 55 1019.0
20260502030838 46 64 3.0 13.0 0.00 0.00 0.00 55 1018.9
20260502030336 46 84 6.0 9.0 0.00 0.00 0.00 55 1019.0
20260502025832 46 84 8.0 11.0 0.00 0.00 0.00 55 1018.9
20260502025330 46 350 0.0 8.0 0.00 0.00 0.00 55 1018.9
20260502024828 46 77 3.0 7.0 0.00 0.00 0.00 55 1018.8
20260502024325 46 157 1.0 4.0 0.00 0.00 0.00 54 1018.9
20260502023823 47 95 2.0 7.0 0.00 0.00 0.00 54 1018.8
20260502023321 48 32 0.0 6.0 0.00 0.00 0.00 52 1018.9
20260502022819 49 11 1.0 4.0 0.00 0.00 0.00 51 1018.8
20260502022315 50 103 1.0 2.0 0.00 0.00 0.00 49 1018.8
20260502021811 51 84 1.0 3.0 0.00 0.00 0.00 47 1018.7
20260502021309 51 33 0.0 0.0 0.00 0.00 0.00 44 1018.7
20260502020806 52 15 0.0 1.0 0.00 0.00 0.00 44 1018.7
20260502020303 53 282 0.0 1.0 0.00 0.00 0.00 44 1018.7
20260502015800 53 59 0.0 2.0 0.00 0.00 0.00 42 1018.5
20260502015257 54 90 0.0 2.0 0.00 0.00 0.00 40 1018.9
20260502014755 55 282 1.0 3.0 0.00 0.00 0.00 41 1018.7
20260502014251 56 307 3.0 5.0 0.00 0.00 0.00 38 1018.7
20260502013747 57 294 3.0 5.0 0.00 0.00 0.00 36 1018.8
20260502013243 57 297 3.0 3.0 0.00 0.00 0.00 39 1018.7
20260502012740 58 342 0.0 2.0 0.00 0.00 0.00 33 1018.7
20260502012238 59 0 4.0 4.0 0.00 0.00 0.00 32 1018.8
20260502011735 60 346 1.0 2.0 0.00 0.00 0.00 34 1018.8
20260502011231 60 270 3.0 5.0 0.00 0.00 0.00 33 1018.8
20260502010729 60 270 0.0 3.0 0.00 0.00 0.00 33 1018.7
20260502010224 60 283 4.0 6.0 0.00 0.00 0.00 32 1018.8
20260502005722 61 237 2.0 5.0 0.00 0.00 0.00 31 1018.5
20260502005220 60 258 3.0 6.0 0.00 0.00 0.00 31 1018.7
20260502004716 61 254 3.0 5.0 0.00 0.00 0.00 34 1018.5
20260502004212 61 286 2.0 4.0 0.00 0.00 0.00 32 1018.5
20260502003710 61 286 2.0 2.0 0.00 0.00 0.00 33 1018.7
20260502003208 61 342 0.0 3.0 0.00 0.00 0.00 31 1018.5
20260502002703 61 3 2.0 6.0 0.00 0.00 0.00 33 1018.7
20260502002201 61 283 4.0 5.0 0.00 0.00 0.00 35 1018.7
20260502001658 62 304 4.0 5.0 0.00 0.00 0.00 37 1018.7
20260502001155 60 359 4.0 6.0 0.00 0.00 0.00 32 1018.4
20260502000653 62 240 0.0 3.0 0.00 0.00 0.00 32 1018.7
20260502000151 61 265 4.0 6.0 0.00 0.00 0.00 31 1018.8
20260501235646 61 278 3.0 7.0 0.00 0.00 0.00 33 1018.7
20260501235143 61 278 7.0 7.0 0.00 0.00 0.00 35 1018.7
20260501234638 61 211 3.0 6.0 0.00 0.00 0.00 31 1018.4
20260501234136 60 249 4.0 6.0 0.00 0.00 0.00 33 1018.5
20260501233634 60 250 5.0 7.0 0.00 0.00 0.00 32 1018.4
20260501233131 60 283 4.0 5.0 0.00 0.00 0.00 35 1018.3
20260501232627 60 279 7.0 12.0 0.00 0.00 0.00 34 1018.5
20260501232124 61 209 1.0 4.0 0.00 0.00 0.00 33 1018.5
20260501231622 62 340 1.0 3.0 0.00 0.00 0.00 32 1018.4
20260501231120 60 177 3.0 7.0 0.00 0.00 0.00 35 1018.4
20260501230618 60 244 4.0 6.0 0.00 0.00 0.00 34 1018.5
20260501230116 61 237 4.0 4.0 0.00 0.00 0.00 35 1018.4
20260501225613 61 274 5.0 8.0 0.00 0.00 0.00 35 1018.4
20260501225109 61 190 2.0 4.0 0.00 0.00 0.00 33 1018.5
20260501224607 60 261 3.0 5.0 0.00 0.00 0.00 33 1018.7
20260501224103 61 241 6.0 6.0 0.00 0.00 0.00 36 1018.5
20260501223600 59 270 3.0 8.0 0.00 0.00 0.00 32 1018.5
20260501223056 60 254 0.0 9.0 0.00 0.00 0.00 38 1018.5
20260501222553 59 328 0.0 5.0 0.00 0.00 0.00 33 1018.7
20260501222050 59 270 3.0 8.0 0.00 0.00 0.00 34 1018.8
20260501221546 60 322 6.0 9.0 0.00 0.00 0.00 36 1018.8
20260501221044 61 272 6.0 7.0 0.00 0.00 0.00 38 1018.7
20260501220542 59 200 0.0 6.0 0.00 0.00 0.00 33 1019.0
20260501220038 59 237 4.0 10.0 0.00 0.00 0.00 34 1018.9
20260501215534 62 304 2.0 7.0 0.00 0.00 0.00 37 1018.8
20260501215030 59 320 3.0 5.0 0.00 0.00 0.00 35 1018.9
20260501214525 58 243 5.0 11.0 0.00 0.00 0.00 35 1019.0
20260501214021 59 245 9.0 12.0 0.00 0.00 0.00 36 1019.0
20260501213519 59 290 3.0 9.0 0.00 0.00 0.00 37 1019.0
20260501213015 59 243 3.0 6.0 0.00 0.00 0.00 36 1019.3
20260501212511 59 260 2.0 9.0 0.00 0.00 0.00 37 1019.1
20260501212008 61 293 3.0 5.0 0.00 0.00 0.00 40 1019.1
20260501211505 59 231 8.0 11.0 0.00 0.00 0.00 38 1019.0
20260501211003 58 216 5.0 11.0 0.00 0.00 0.00 35 1019.0
20260501210458 60 300 3.0 10.0 0.00 0.00 0.00 38 1019.3
20260501205955 59 237 3.0 8.0 0.00 0.00 0.00 36 1019.1
20260501205452 59 270 5.0 15.0 0.00 0.00 0.00 37 1019.3
20260501204949 59 279 8.0 8.0 0.00 0.00 0.00 39 1019.3
20260501204445 58 229 3.0 9.0 0.00 0.00 0.00 38 1019.1
20260501203942 57 239 5.0 9.0 0.00 0.00 0.00 38 1019.3
20260501203439 59 346 2.0 6.0 0.00 0.00 0.00 39 1019.3
20260501202936 59 286 4.0 6.0 0.00 0.00 0.00 37 1019.3
20260501202433 58 277 8.0 9.0 0.00 0.00 0.00 40 1019.1
20260501201929 58 346 3.0 7.0 0.00 0.00 0.00 38 1019.3
20260501201426 59 324 2.0 7.0 0.00 0.00 0.00 42 1019.3
20260501200923 59 317 4.0 6.0 0.00 0.00 0.00 41 1019.4
20260501200420 56 142 5.0 7.0 0.00 0.00 0.00 39 1019.5
20260501195918 56 251 1.0 7.0 0.00 0.00 0.00 37 1019.6
20260501195415 57 21 5.0 6.0 0.00 0.00 0.00 37 1019.5
20260501194910 56 267 3.0 9.0 0.00 0.00 0.00 40 1019.4
20260501194406 56 287 6.0 9.0 0.00 0.00 0.00 39 1019.5
20260501193902 57 236 4.0 5.0 0.00 0.00 0.00 44 1019.4
20260501193401 57 233 4.0 6.0 0.00 0.00 0.00 39 1019.4
20260501192858 57 236 9.0 9.0 0.00 0.00 0.00 40 1019.4
20260501192355 56 249 5.0 8.0 0.00 0.00 0.00 42 1019.4
20260501191851 57 273 4.0 10.0 0.00 0.00 0.00 40 1019.8
20260501191348 56 188 0.0 6.0 0.00 0.00 0.00 42 1019.6
20260501190845 55 22 3.0 6.0 0.00 0.00 0.00 37 1019.6
20260501190341 53 234 5.0 8.0 0.00 0.00 0.00 38 1019.6
20260501185836 55 343 5.0 10.0 0.00 0.00 0.00 40 1019.6
20260501185333 55 341 2.0 7.0 0.00 0.00 0.00 39 1019.6
20260501184828 55 279 2.0 5.0 0.00 0.00 0.00 40 1019.8
20260501184325 56 352 6.0 9.0 0.00 0.00 0.00 40 1019.6
20260501183820 56 277 4.0 5.0 0.00 0.00 0.00 42 1019.6
20260501183318 55 0 4.0 6.0 0.00 0.00 0.00 40 1019.9
20260501182814 53 299 5.0 11.0 0.00 0.00 0.00 40 1020.0
20260501182311 54 338 3.0 4.0 0.00 0.00 0.00 42 1020.1
20260501181808 54 292 3.0 7.0 0.00 0.00 0.00 41 1019.8
20260501181305 54 225 6.0 8.0 0.00 0.00 0.00 43 1020.0
20260501180803 54 160 3.0 7.0 0.00 0.00 0.00 39 1020.1
20260501180259 53 180 3.0 6.0 0.00 0.00 0.00 42 1020.2
20260501175756 52 244 3.0 10.0 0.00 0.00 0.00 42 1020.1
20260501175253 54 251 2.0 5.0 0.00 0.00 0.00 42 1020.2
20260501174749 52 236 3.0 7.0 0.00 0.00 0.00 42 1020.2
20260501174247 52 270 2.0 7.0 0.00 0.00 0.00 42 1020.4
20260501173745 53 17 3.0 5.0 0.00 0.00 0.00 42 1020.4
20260501173241 53 240 1.0 5.0 0.00 0.00 0.00 42 1020.2
20260501172737 53 5 3.0 6.0 0.00 0.00 0.00 43 1020.5
20260501172233 53 258 5.0 8.0 0.00 0.00 0.00 44 1020.5
20260501171729 52 200 0.0 5.0 0.00 0.00 0.00 42 1020.4
20260501171226 52 154 2.0 5.0 0.00 0.00 0.00 42 1020.4
20260501170723 53 151 3.0 4.0 0.00 0.00 0.00 45 1020.4
20260501170220 50 93 6.0 7.0 0.00 0.00 0.00 41 1020.4
20260501165717 50 265 4.0 6.0 0.00 0.00 0.00 43 1020.6
20260501165215 52 293 3.0 7.0 0.00 0.00 0.00 44 1020.5
20260501164712 52 294 2.0 3.0 0.00 0.00 0.00 44 1020.6
20260501164209 51 105 2.0 6.0 0.00 0.00 0.00 46 1020.4
20260501163705 49 90 2.0 5.0 0.00 0.00 0.00 44 1020.4
20260501163202 49 14 3.0 5.0 0.00 0.00 0.00 45 1020.2
20260501162658 51 29 1.0 4.0 0.00 0.00 0.00 45 1020.4
20260501162155 48 289 2.0 7.0 0.00 0.00 0.00 45 1020.4
20260501161652 48 259 2.0 6.0 0.00 0.00 0.00 46 1020.2
20260501161149 50 209 0.0 6.0 0.00 0.00 0.00 48 1020.2
20260501160646 48 225 3.0 6.0 0.00 0.00 0.00 48 1020.1
20260501160143 48 236 3.0 9.0 0.00 0.00 0.00 47 1020.1
20260501155640 49 257 3.0 4.0 0.00 0.00 0.00 47 1020.0
20260501155137 48 300 7.0 7.0 0.00 0.00 0.00 45 1020.1
20260501154634 48 341 0.0 7.0 0.00 0.00 0.00 42 1020.1
20260501154131 48 293 5.0 6.0 0.00 0.00 0.00 47 1020.1
20260501153628 48 270 3.0 5.0 0.00 0.00 0.00 48 1020.1
20260501153125 48 281 3.0 6.0 0.00 0.00 0.00 51 1020.1
20260501152616 49 237 5.0 5.0 0.00 0.00 0.00 47 1020.2
20260501152113 48 172 0.0 4.0 0.00 0.00 0.00 46 1020.1
20260501151610 48 180 2.0 2.0 0.00 0.00 0.00 44 1020.0
20260501151106 48 135 0.0 6.0 0.00 0.00 0.00 48 1020.0
20260501150601 48 173 0.0 3.0 0.00 0.00 0.00 44 1020.0
20260501150058 48 102 1.0 3.0 0.00 0.00 0.00 45 1020.1
20260501145549 46 200 1.0 4.0 0.00 0.00 0.00 47 1019.9
20260501145047 46 130 2.0 5.0 0.00 0.00 0.00 48 1020.0
20260501144544 45 156 3.0 5.0 0.00 0.00 0.00 48 1020.0
20260501144038 45 180 0.0 5.0 0.00 0.00 0.00 50 1019.9
20260501143535 43 150 5.0 6.0 0.00 0.00 0.00 49 1019.6
20260501143032 44 106 5.0 8.0 0.00 0.00 0.00 50 1019.6
20260501142530 44 90 2.0 7.0 0.00 0.00 0.00 51 1019.6
20260501142026 42 123 3.0 9.0 0.00 0.00 0.00 51 1019.6
20260501141521 41 136 7.0 11.0 0.00 0.00 0.00 52 1019.8